Location: Bęczków
(50.8761°N, 20.8028°E)
Time: 20:36:39
(UTC+02:00)

Envisat - Pass Details

Date: 23 March 2019
Orbit: 764 x 766 km, 98.2° (Epoch: 24 April)

Event Time Altitude Azimuth Distance (km) Brightness Sun altitude
Rises 19:01:47 0° 196° (SSW) 3,223 6.2 -11.3°
Reaches altitude 10° 19:04:23 10° 207° (SSW) 2,301 5.6 -11.7°
Maximum altitude 19:08:44 28° 267° (W) 1,401 5.2 -12.4°
Drops below altitude 10° 19:13:07 10° 326° (NNW) 2,316 6.3 -13.0°
Sets 19:15:45 0° 338° (NNW) 3,247 6.9 -13.4°
